Location: Antioch Baptist Church
(32.6696°N, 85.7327°W)
Time: 20:02:44
(UTC+00:00)

Cosmos-2242 - Visible Passes

Search period start: 29 October 2020 00:00
Search period end: 08 November 2020 00:00
Orbit: 591 x 617 km, 82.5° (Epoch: 28 October)

Date Brightness Start Highest point End Pass type
(mag) Time Alt. Az. Time Alt. Az. Time Alt. Az.
29 Oct 5.4 00:58:57 10° S 00:59:30 14° S 00:59:30 14° S visible
29 Oct 6.0 11:11:32 10° NE 11:14:13 16° ENE 11:16:54 10° ESE visible
30 Oct 4.8 01:11:47 10° SSW 01:13:51 26° SW 01:13:51 26° SW visible
30 Oct 5.4 11:23:14 10° NNE 11:26:58 27° ENE 11:30:41 10° SE visible
30 Oct 4.3 23:48:09 10° SE 23:51:11 19° E 23:51:23 19° E visible
31 Oct 5.2 01:25:03 10° SW 01:28:22 24° W 01:28:22 24° W visible
31 Oct 3.6 23:59:49 10° SSE 00:03:39 34° E 00:06:02 19° NE visible
01 Nov 5.9 01:39:01 10° WSW 01:41:17 14° WNW 01:43:01 12° NW visible
02 Nov 2.9 00:12:00 10° S 00:16:11 63° E 00:20:25 10° NNE visible
03 Nov 3.2 00:24:32 10° SSW 00:28:46 70° W 00:33:03 10° N visible
03 Nov 6.0 10:36:53 10° NNE 10:39:51 18° ENE 10:42:49 10° ESE visible
04 Nov 4.4 00:37:27 10° SSW 00:41:24 38° W 00:45:25 10° N visible
04 Nov 5.1 10:48:43 10° NNE 10:52:35 30° E 10:56:27 10° SE visible
04 Nov 4.2 23:13:28 10° SE 23:16:43 22° E 23:20:01 10° NE visible
05 Nov 5.4 00:50:48 10° SW 00:54:07 22° WNW 00:57:28 10° NNW visible
05 Nov 3.9 11:00:58 10° N 11:05:16 53° E 11:09:33 10° SSE visible
05 Nov 3.5 23:25:16 10° SSE 23:29:12 38° E 23:33:11 10° NNE visible
06 Nov 6.1 01:05:00 10° W 01:06:54 13° WNW 01:08:48 10° NW visible
06 Nov 3.0 11:13:29 10° N 11:17:53 84° W 11:22:16 10° S visible
06 Nov 2.9 23:37:31 10° S 23:41:45 71° E 23:46:02 10° N visible
07 Nov 6.3 09:51:17 10° NE 09:52:41 11° ENE 09:54:05 10° E visible
07 Nov 3.3 11:26:15 10° NNW 11:30:27 46° W 11:34:38 10° SSW visible
07 Nov 3.5 23:50:07 10° SSW 23:54:20 62° W 23:58:37 10° N visible
